This is the latest recevied weather packets stored in our database for station/object KK7HEZ. If no packets are shown the sender has not sent any weather packets the latest 1 day(s).
| Time | Temp. | Humidity | Pressure | Rain* | Wind** | Luminosity | Snow |
|---|---|---|---|---|---|---|---|
| 1777998785 | 13.89° C | 87% | 1017 hPa | 0 mm | 0 m/s | 35 W/m² | - |
| 1777998483 | 13.89° C | 87% | 1016.9 hPa | 0 mm | 0 m/s | 31 W/m² | - |
| 1777998178 | 13.89° C | 87% | 1016.8 hPa | 0 mm | 0.45 m/s, 158° | 31 W/m² | - |
| 1777997876 | 13.89° C | 87% | 1016.8 hPa | 0 mm | 0 m/s | 32 W/m² | - |
| 1777997573 | 13.89° C | 87% | 1016.9 hPa | 0 mm | 0 m/s | 31 W/m² | - |
| 1777997270 | 13.89° C | 87% | 1017 hPa | 0 mm | 0 m/s | 29 W/m² | - |
| 1777996968 | 13.89° C | 88% | 1017 hPa | 0 mm | 0 m/s | 29 W/m² | - |
| 1777996664 | 13.89° C | 88% | 1016.8 hPa | 0 mm | 0 m/s | 26 W/m² | - |
| 1777996360 | 13.89° C | 88% | 1016.8 hPa | 0 mm | 0 m/s | 24 W/m² | - |
| 1777996057 | 13.89° C | 88% | 1016.9 hPa | 0 mm | 0 m/s | 24 W/m² | - |
| 1777995753 | 13.89° C | 88% | 1016.9 hPa | 0 mm | 0 m/s | 24 W/m² | - |
| 1777995450 | 13.33° C | 88% | 1016.8 hPa | 0 mm | 0.45 m/s, 149° | 21 W/m² | - |
| 1777995147 | 13.33° C | 88% | 1016.7 hPa | 0 mm | 0 m/s | 21 W/m² | - |
| 1777994844 | 13.33° C | 88% | 1016.7 hPa | 0 mm | 0 m/s | 21 W/m² | - |
| 1777994540 | 13.33° C | 88% | 1016.9 hPa | 0 mm | 0 m/s | 23 W/m² | - |
| 1777994235 | 13.33° C | 88% | 1016.7 hPa | 0 mm | 0 m/s | 20 W/m² | - |
| 1777993933 | 13.33° C | 88% | 1016.8 hPa | 0 mm | 0 m/s | 19 W/m² | - |
| 1777993629 | 13.33° C | 88% | 1016.5 hPa | 0 mm | 0.45 m/s, 166° | 19 W/m² | - |
| 1777993326 | 13.33° C | 88% | 1016.5 hPa | 0 mm | 0 m/s | 18 W/m² | - |
| 1777993026 | 13.33° C | 88% | 1016.5 hPa | 0 mm | 0 m/s | 19 W/m² | - |
| 1777992725 | 13.33° C | 88% | 1016.4 hPa | 0 mm | 0 m/s | 16 W/m² | - |
| 1777992422 | 13.33° C | 87% | 1016.7 hPa | 0 mm | 0.89 m/s, 115° | 16 W/m² | - |
| 1777992120 | 13.33° C | 88% | 1016.4 hPa | 0 mm | 0 m/s | 18 W/m² | - |
| 1777991817 | 13.33° C | 88% | 1016.5 hPa | 0 mm | 0 m/s | 14 W/m² | - |
| 1777991514 | 13.33° C | 88% | 1016.5 hPa | 0 mm | 0 m/s | 14 W/m² | - |
* Rain latest hour (hover to see other rain measurements)
** Current wind speed in m/s (hover to see current wind gust speed)